EUTELSAT 174A

Last updated on Thu Aug 13 2026 00:02:57 GMT+0000 (Coordinated Universal Time)

1 28924U 05052A 26224.58655648 -.00000010 00000+0 00000+0 0 9990 2 28924 4.3567 75.8092 0005928 66.1341 204.1975 1.00271750 52893
UTC large
Height (km)
Speed (km/s)
/
Latitude / Longitude
Inclination (degrees)
Orbital Period (minutes)
Azimuth
Elevation
Range (km)
Doppler Factor

Next 0 passes for location: London (51.5072 / 0.1276)

No passes found over London.
EUTELSAT 174A